Location: Kennington
(51.1500°N, 0.8833°E)
Time: 11:37:35
(UTC+00:00)

SL-16 R/B - Pass Details

Date: 21 September 2020
Orbit: 985 x 1007 km, 99.5° (Epoch: 30 October)

Event Time Altitude Azimuth Distance (km) Brightness Sun altitude
Exits shadow 03:00:16 19° 301° (WNW) 2,186 4.1 -24.5°
Drops below altitude 10° 03:02:39 10° 321° (NW) 2,756 4.8 -24.2°
Sets 03:05:42 0° 336° (NNW) 3,708 5.7 -23.8°
